Regional Weather Roundup
Issued by NWS Newport/Morehead, NC

Current Version | Previous Version | Graphics & Text | Print | Product List | Glossary Off
Versions: 1 2 3 4 5 6 7 8 9 10 11 12 13 14 15 16 17 18 19 20 21 22 23 24 25 26 27 28 29 30 31 32 33 34 35 36 37 38 39 40 41 42 43 44 45 46 47 48 49 50

000
ASUS42 KMHX 170925
RWRMHX
WEATHER ROUNDUP FOR EASTERN NORTH CAROLINA
NATIONAL WEATHER SERVICE NEWPORT/MOREHEAD CITY NC
400 AM EST SUN DEC 17 2017

NOTE: "FAIR" INDICATES FEW OR NO CLOUDS BELOW 12,000 FEET
WITH NO SIGNIFICANT WEATHER AND/OR OBSTRUCTIONS TO VISIBILITY

NCZ015>017-031-032-045>047-102-103-171000-
NORTH COAST

CITY           SKY/WX    TMP DP  RH WIND       PRES   REMARKS
EDENTON        NOT AVBL
ELIZABETH CITY CLEAR     28  26  92 S3        30.27F
KITTY HAWK     SUNNY     37  30  74 CALM      30.26F
MANTEO         CLEAR     38  31  74 W6        30.29S

$$

NCZ045>047-081-094-103-104-171000-
CENTRAL COAST

CITY           SKY/WX    TMP DP  RH WIND       PRES   REMARKS
FRISCO         CLEAR     37  36  96 W5        30.29F

$$

NCZ095-097-098-100-101-171000-
SOUTHERN COAST

CITY           SKY/WX    TMP DP  RH WIND       PRES   REMARKS
BEAUFORT       CLOUDY    38  32  79 W5        30.30F
CEDAR ISLAND   NOT AVBL
JACKSONVILLE   CLEAR     32  30  92 CALM      30.29F
PINEY ISLAND     N/A    N/A N/A N/A SW6       30.30S
WILMINGTON     CLOUDY    30  29  96 CALM      30.29F


$$

NCZ011>013-027>030-043-044-078>080-089-090>093-098-171000-
COASTAL PLAIN

CITY           SKY/WX    TMP DP  RH WIND       PRES   REMARKS
AHOSKIE        CLOUDY    28  26  89 CALM      30.27S
CLINTON        CLOUDY    31  29  93 CALM      30.29F
ELIZABETHTOWN  NOT AVBL
GOLDSBORO      CLOUDY    32  25  77 CALM      30.27S
GREENVILLE     CLOUDY    30  28  93 CALM      30.29S
HAVELOCK       NOT AVBL
KENANSVILLE    CLEAR     27  25  93 CALM      30.29F FOG
KINSTON        NOT AVBL
NEW BERN       CLOUDY    30  28  92 CALM      30.31S
RICHLANDS      PTCLDY    28  25  88 CALM      30.28F
ROCKY MOUNT    CLOUDY    30  26  85 S5        30.27S
WASHINGTON     CLOUDY    32  27  81 CALM      30.29S
WHITEVILLE     CLOUDY    31  30  95 CALM      30.28F

$$

AMZ130-135-150-152-154-156-158-170-250-252-270-ANZ085-086-088-633-658-670-171000-
MARINE OBSERVATIONS

STATION/POSITION TIME  TEMP    WIND        PRES    WAVE   SWELL
                       AIR SEA DIR/SP/G            HT/PER HT/PER
                 (UTC) (F)     (DEG/KT/KT) (MB)    (FT/S) (FT/S)
CHESAPEAKE LIGHT NOT AVBL
64 E VA BEACH    0850   51 59  280/ 14/ 17 1024.7    3/ 5   2/ 9
DUCK             0900   41 52  240/ 10/ 11 1024.4
2 E DUCK         0900      54                N/A     1/11
OREGON INLET     0900   42 45  230/  7/  9 1025.4
13E OREGON INLT  0848      58                N/A     2/ 7   2/ 7
HATTERAS CG      0900   43 51  250/  5/  5 1025.5
DIAMOND BUOY     0900   53 72  300/ 12/ 16 1025.7
CAPE LOOKOUT     0900          300/  7/  8 1026.0
BEAUFORT LAB     0900   41 49  330/  2/  3 1025.8
30 SE NEW RVR IN 0908   53 63  330/  8/ 12 1025.7
30 SE NEW RVR IN 0900      63                N/A     2/ 8
27 SE WRIGHTSVLE 0908   52 63  300/  8/ 14 1025.6
5 SE WRIGHTSVLE  0908   48 56  280/  8/ 10 1025.4
225 S CAPE HAT   0850   62 74  340/  6/  8 1025.0    3/10   3/10
41 SE CHARLESTON 0900   56 72  330/  8/ 12 1025.3

$$




USA.gov is the U.S. government's official web portal to all federal, state and local government web resources and services.